GMART EGKA-EGHP

Flight info

Callsign GMART
Flight time 0h 25m
Altitude 2100
Route EGKA / WASHINGTON INTERSECTION VRP / EGHP
Aircraft C172/L-VGD/C

Departure

Time 2026-05-01 08:37
Airport Brighton City Airport (EGKA)

Arrival

Time 2026-05-01 09:02
Airport Popham Airfield (EGHP)
Time Latitude Longitude Altitude Speed Heading
2026-05-01 08:28 50.83446 -0.28988 9 ft 0 kts 253°
2026-05-01 08:31 50.83444 -0.28994 9 ft 4 kts 255°
2026-05-01 08:31 50.83491 -0.28940 9 ft 17 kts 79°
2026-05-01 08:32 50.83556 -0.28807 7 ft 17 kts
2026-05-01 08:32 50.83647 -0.28905 8 ft 15 kts 305°
2026-05-01 08:32 50.83709 -0.29046 10 ft 16 kts 303°
2026-05-01 08:32 50.83772 -0.29187 13 ft 16 kts 305°
2026-05-01 08:33 50.83846 -0.29324 12 ft 17 kts 339°
2026-05-01 08:33 50.83929 -0.29350 11 ft 6 kts 274°
2026-05-01 08:33 50.83909 -0.29379 12 ft 7 kts 181°
2026-05-01 08:33 50.83872 -0.29392 13 ft 4 kts 193°
2026-05-01 08:34 50.83859 -0.29397 13 ft 0 kts 193°
2026-05-01 08:35 50.83844 -0.29406 13 ft 6 kts 225°
2026-05-01 08:35 50.83822 -0.29412 13 ft 2 kts 126°
2026-05-01 08:35 50.83822 -0.29410 13 ft 0 kts 130°
2026-05-01 08:36 50.83722 -0.29200 14 ft 48 kts 125°
2026-05-01 08:36 50.83460 -0.28664 131 ft 68 kts 123°
2026-05-01 08:36 50.83143 -0.28053 322 ft 76 kts 130°
2026-05-01 08:36 50.82760 -0.27401 504 ft 85 kts 130°
2026-05-01 08:37 50.82341 -0.26655 674 ft 94 kts 127°
2026-05-01 08:37 50.82387 -0.25687 853 ft 104 kts 47°
2026-05-01 08:37 50.83112 -0.25588 1039 ft 113 kts 345°
2026-05-01 08:37 50.83886 -0.25892 1224 ft 116 kts 348°
2026-05-01 08:38 50.84693 -0.26175 1408 ft 121 kts 347°
2026-05-01 08:38 50.85514 -0.26495 1583 ft 121 kts 335°
2026-05-01 08:38 50.86062 -0.27456 1770 ft 120 kts 299°
2026-05-01 08:38 50.86503 -0.28568 1939 ft 117 kts 293°
2026-05-01 08:39 50.86895 -0.29698 2088 ft 122 kts 295°
2026-05-01 08:39 50.87319 -0.30919 2108 ft 130 kts 294°
2026-05-01 08:39 50.87753 -0.32150 2113 ft 126 kts 293°
2026-05-01 08:39 50.88188 -0.33352 2090 ft 126 kts 295°
2026-05-01 08:40 50.89021 -0.35734 2092 ft 124 kts 294°
2026-05-01 08:40 50.89439 -0.36921 2095 ft 125 kts 295°
2026-05-01 08:40 50.89864 -0.38133 2091 ft 124 kts 295°
2026-05-01 08:41 50.90281 -0.39315 2099 ft 123 kts 294°
2026-05-01 08:41 50.90713 -0.40525 2104 ft 129 kts 294°
2026-05-01 08:41 50.91156 -0.41765 2108 ft 129 kts 295°
2026-05-01 08:41 50.91599 -0.43029 2110 ft 133 kts 295°
2026-05-01 08:42 50.92039 -0.44340 2099 ft 133 kts 295°
2026-05-01 08:42 50.92483 -0.45629 2102 ft 134 kts 294°
2026-05-01 08:42 50.92924 -0.46891 2107 ft 134 kts 295°
2026-05-01 08:42 50.93380 -0.48198 2100 ft 136 kts 295°
2026-05-01 08:43 50.93832 -0.49483 2095 ft 131 kts 295°
2026-05-01 08:43 50.94287 -0.50756 2089 ft 133 kts 295°
2026-05-01 08:43 50.94718 -0.52016 2089 ft 128 kts 295°
2026-05-01 08:43 50.95153 -0.53250 2090 ft 129 kts 295°
2026-05-01 08:44 50.95580 -0.54482 2082 ft 126 kts 294°
2026-05-01 08:44 50.96014 -0.55701 2094 ft 131 kts 295°
2026-05-01 08:44 50.96458 -0.56952 2086 ft 129 kts 295°
2026-05-01 08:44 50.96889 -0.58177 2100 ft 128 kts 294°
2026-05-01 08:45 50.97341 -0.59434 2099 ft 133 kts 295°
2026-05-01 08:45 50.97779 -0.60690 2098 ft 129 kts 295°
2026-05-01 08:45 50.98216 -0.61928 2094 ft 128 kts 295°
2026-05-01 08:45 50.98651 -0.63168 2095 ft 129 kts 295°
2026-05-01 08:46 50.99085 -0.64424 2099 ft 132 kts 295°
2026-05-01 08:46 50.99530 -0.65700 2085 ft 131 kts 295°
2026-05-01 08:46 50.99970 -0.66951 2071 ft 128 kts 295°
2026-05-01 08:46 51.00402 -0.68156 2073 ft 123 kts 295°
2026-05-01 08:47 51.00824 -0.69336 2082 ft 125 kts 294°
2026-05-01 08:47 51.01256 -0.70512 2074 ft 126 kts 295°
2026-05-01 08:47 51.01698 -0.71714 2069 ft 123 kts 295°
2026-05-01 08:47 51.02128 -0.72895 2081 ft 129 kts 295°
2026-05-01 08:48 51.02571 -0.74167 2071 ft 132 kts 294°
2026-05-01 08:48 51.02991 -0.75392 2069 ft 121 kts 294°
2026-05-01 08:48 51.03369 -0.76534 2067 ft 113 kts 293°
2026-05-01 08:48 51.03739 -0.77634 2066 ft 113 kts 293°
2026-05-01 08:49 51.04126 -0.78766 2070 ft 120 kts 293°
2026-05-01 08:49 51.04528 -0.79962 2078 ft 124 kts 292°
2026-05-01 08:49 51.04940 -0.81147 2073 ft 121 kts 294°
2026-05-01 08:49 51.05367 -0.82353 2071 ft 127 kts 294°
2026-05-01 08:50 51.05783 -0.83546 2074 ft 121 kts 294°
2026-05-01 08:50 51.06197 -0.84762 2073 ft 128 kts 294°
2026-05-01 08:50 51.06620 -0.85989 2064 ft 123 kts 293°
2026-05-01 08:50 51.07034 -0.87162 2078 ft 124 kts 295°
2026-05-01 08:51 51.07457 -0.88366 2065 ft 123 kts 294°
2026-05-01 08:51 51.07872 -0.89541 2071 ft 125 kts 294°
2026-05-01 08:51 51.08295 -0.90751 2067 ft 124 kts 294°
2026-05-01 08:51 51.08716 -0.91945 2071 ft 125 kts 294°
2026-05-01 08:52 51.09141 -0.93127 2077 ft 124 kts 292°
2026-05-01 08:52 51.09524 -0.94362 2072 ft 124 kts 288°
2026-05-01 08:52 51.09887 -0.95592 2062 ft 121 kts 289°
2026-05-01 08:52 51.10251 -0.96812 2072 ft 124 kts 289°
2026-05-01 08:53 51.10608 -0.98039 2063 ft 121 kts 289°
2026-05-01 08:53 51.10964 -0.99271 2079 ft 125 kts 289°
2026-05-01 08:53 51.11313 -1.00521 2077 ft 124 kts 289°
2026-05-01 08:53 51.11665 -1.01729 2073 ft 117 kts 289°
2026-05-01 08:54 51.12003 -1.02885 2073 ft 115 kts 288°
2026-05-01 08:54 51.12343 -1.04049 2067 ft 115 kts 289°
2026-05-01 08:54 51.12677 -1.05201 2064 ft 115 kts 289°
2026-05-01 08:54 51.13010 -1.06381 2006 ft 119 kts 289°
2026-05-01 08:55 51.13263 -1.07274 1925 ft 119 kts 289°
2026-05-01 08:55 51.13339 -1.07542 1904 ft 121 kts 288°
2026-05-01 08:55 51.13695 -1.08797 1785 ft 127 kts 289°
2026-05-01 08:55 51.14058 -1.10102 1659 ft 130 kts 289°
2026-05-01 08:56 51.14419 -1.11434 1516 ft 130 kts 289°
2026-05-01 08:56 51.14765 -1.12705 1488 ft 119 kts 288°
2026-05-01 08:56 51.15095 -1.13866 1495 ft 114 kts 289°
2026-05-01 08:56 51.15423 -1.15022 1493 ft 115 kts 288°
2026-05-01 08:57 51.15744 -1.16177 1489 ft 116 kts 289°
2026-05-01 08:57 51.16061 -1.17358 1500 ft 117 kts 288°
2026-05-01 08:57 51.16386 -1.18537 1494 ft 115 kts 289°
2026-05-01 08:57 51.16709 -1.19694 1500 ft 115 kts 289°
2026-05-01 08:58 51.17039 -1.20865 1501 ft 118 kts 289°
2026-05-01 08:58 51.17378 -1.22085 1503 ft 121 kts 289°
2026-05-01 08:58 51.17705 -1.23293 1501 ft 117 kts 289°
2026-05-01 08:58 51.18028 -1.24456 1495 ft 113 kts 290°
2026-05-01 08:59 51.18373 -1.25603 1483 ft 117 kts 290°
2026-05-01 08:59 51.18734 -1.26756 1478 ft 116 kts 297°
2026-05-01 08:59 51.19447 -1.27256 1460 ft 120 kts 11°
2026-05-01 08:59 51.20217 -1.26834 1468 ft 116 kts 20°
2026-05-01 09:00 51.20996 -1.26448 1345 ft 117 kts 22°
2026-05-01 09:00 51.21691 -1.25894 1293 ft 112 kts 35°
2026-05-01 09:00 51.22337 -1.25265 1181 ft 104 kts 39°
2026-05-01 09:00 51.22692 -1.24410 989 ft 88 kts 94°
2026-05-01 09:01 51.22443 -1.23634 921 ft 72 kts 131°
2026-05-01 09:01 51.22113 -1.23022 900 ft 73 kts 131°
2026-05-01 09:01 51.21795 -1.22413 905 ft 72 kts 129°
2026-05-01 09:01 51.21406 -1.21954 913 ft 72 kts 165°
2026-05-01 09:02 51.20908 -1.22156 876 ft 74 kts 188°
2026-05-01 09:02 51.20434 -1.22376 633 ft 70 kts 206°
2026-05-01 09:02 51.20032 -1.22740 511 ft 64 kts 204°
2026-05-01 09:02 51.19730 -1.23021 521 ft 29 kts 216°
2026-05-01 09:03 51.19651 -1.23091 526 ft 6 kts 207°
2026-05-01 09:03 51.19592 -1.23147 528 ft 17 kts 213°
2026-05-01 09:03 51.19489 -1.23256 535 ft 13 kts 209°
2026-05-01 09:03 51.19429 -1.23336 533 ft 13 kts 252°
2026-05-01 09:04 51.19421 -1.23503 522 ft 11 kts 353°
2026-05-01 09:04 51.19459 -1.23475 524 ft 0 kts 66°
2026-05-01 09:04 51.19458 -1.23461 527 ft 0 kts 95°